Staples, MN

4:48 PM CST on January 22, 2018 (GMT -0600)
Staples Municipal

Weather History for KSAZ - March, 2014

Change the Weather History Date:

Thursday, March 6, 2014

  Actual Average Record
Temperature  
Mean Temperature 19 °F -  
Max Temperature 26 °F 25 °F 60 °F (2017)
Min Temperature 12 °F 8 °F -9 °F (2008)
Degree Days  
Heating Degree Days 46    
Moisture  
Dew Point 17 °F    
Average Humidity 87    
Maximum Humidity 100    
Minimum Humidity 74    
Precipitation  
Precipitation 0.00 in - - ()
Sea Level Pressure  
Sea Level Pressure 29.91 in    
Wind  
Wind Speed 16 mph (SSE)    
Max Wind Speed 26 mph    
Max Gust Speed 36 mph    
Visibility 5 miles    
Events      
Averages and records for this station are not official NWS values.
T = Trace of Precipitation, MM = Missing Value Source: NWS Daily Summary

Daily Weather History Graph

Daily Weather History Graph

Search for Another Location

Airport or City:

Trip Planner

Search our weather history database for the weather conditions in past years. The results will help you decide how hot, cold, wet, or windy it might be!

Date:

Astronomy

Mar. 06, 2014 Rise Set
Actual Time 6:49 AM CST 6:12 PM CST
Civil Twilight 6:19 AM CST 6:42 PM CST
Nautical Twilight 5:44 AM CST 7:17 PM CST
Astronomical Twilight 5:09 AM CST 7:52 PM CST
Moon 9:37 AM CST (3/6) No Moon Set
Length of Visible Light 12h 23m
Length of Day
11h 23m
Waxing Crescent, 32% of the Moon is Illuminated
Mar 6
Waxing Crescent
Mar 8
First Quarter
Mar 16
Full
Mar 23
Last Quarter
Mar 30
New

Hourly Weather History & Observations

Time (CST) Temp. Windchill Dew Point Humidity Pressure Visibility Wind Dir Wind Speed Gust Speed Precip Events Conditions
12:13 AM 12.2 °F -4.3 °F 8.6 °F 85% 30.18 in 7.0 mi South 16.1 mph 27.6 mph N/A   Mostly Cloudy
12:33 AM 12.2 °F -3.1 °F 10.4 °F 92% 30.18 in 7.0 mi South 13.8 mph 23.0 mph N/A   Overcast
12:53 AM 14.0 °F -3.0 °F 10.4 °F 86% 30.17 in 5.0 mi South 18.4 mph - N/A   Overcast
1:14 AM 14.0 °F -3.0 °F 10.4 °F 86% 30.16 in 5.0 mi South 18.4 mph 28.8 mph N/A   Overcast
1:33 AM 14.0 °F -2.5 °F 10.4 °F 86% 30.15 in 5.0 mi South 17.3 mph 26.5 mph N/A   Overcast
1:48 AM 14.0 °F -2.5 °F 10.4 °F 86% 30.15 in 7.0 mi South 17.3 mph - N/A   Overcast
2:01 AM 14.0 °F -2.0 °F 10.4 °F 86% 30.14 in 7.0 mi South 16.1 mph 25.3 mph N/A   Overcast
2:22 AM 14.0 °F -1.4 °F 10.4 °F 86% 30.14 in 7.0 mi South 15.0 mph 21.9 mph N/A   Overcast
2:33 AM 14.0 °F -2.5 °F 10.4 °F 86% 30.13 in 7.0 mi South 17.3 mph 24.2 mph N/A   Overcast
2:53 AM 14.0 °F -2.0 °F 10.4 °F 86% 30.11 in 7.0 mi South 16.1 mph 21.9 mph N/A   Overcast
3:13 AM 15.8 °F 0.3 °F 12.2 °F 86% 30.10 in 7.0 mi South 16.1 mph 23.0 mph N/A   Overcast
3:33 AM 15.8 °F 0.9 °F 12.2 °F 86% 30.09 in 7.0 mi South 15.0 mph 25.3 mph N/A   Overcast
3:53 AM 15.8 °F 0.3 °F 12.2 °F 86% 30.08 in 7.0 mi SSE 16.1 mph 24.2 mph N/A   Overcast
4:13 AM 15.8 °F 0.9 °F 12.2 °F 86% 30.06 in 7.0 mi South 15.0 mph - N/A   Overcast
4:33 AM 15.8 °F 2.1 °F 12.2 °F 86% 30.04 in 7.0 mi SSE 12.7 mph - N/A   Overcast
4:53 AM 15.8 °F 0.3 °F 12.2 °F 86% 30.03 in 7.0 mi SSE 16.1 mph 21.9 mph N/A   Overcast
5:14 AM 15.8 °F 1.4 °F 12.2 °F 86% 30.04 in 7.0 mi South 13.8 mph 18.4 mph N/A   Overcast
5:33 AM 15.8 °F 0.9 °F 12.2 °F 86% 30.02 in 7.0 mi SSE 15.0 mph 20.7 mph N/A   Overcast
5:53 AM 15.8 °F 1.4 °F 12.2 °F 86% 30.01 in 7.0 mi SSE 13.8 mph 18.4 mph N/A   Mostly Cloudy
6:13 AM 15.8 °F 0.3 °F 12.2 °F 86% 30.01 in 7.0 mi SSE 16.1 mph 21.9 mph N/A   Mostly Cloudy
6:33 AM 15.8 °F 2.1 °F 12.2 °F 86% 30.02 in 7.0 mi South 12.7 mph 20.7 mph N/A   Overcast
6:54 AM 15.8 °F 0.3 °F 12.2 °F 86% 30.02 in 7.0 mi South 16.1 mph 21.9 mph N/A   Overcast
7:13 AM 15.8 °F -0.2 °F 12.2 °F 86% 30.02 in 5.0 mi South 17.3 mph 21.9 mph N/A   Overcast
7:33 AM 15.8 °F -1.1 °F 12.2 °F 86% 30.01 in 4.0 mi South 19.6 mph - N/A   Overcast
7:54 AM 15.8 °F -0.6 °F 12.2 °F 86% 29.99 in 3.0 mi SSE 18.4 mph 23.0 mph N/A   Overcast
8:13 AM 15.8 °F 0.3 °F 12.2 °F 86% 29.97 in 4.0 mi SE 16.1 mph 21.9 mph N/A   Overcast
8:34 AM 15.8 °F -0.2 °F 12.2 °F 86% 29.96 in 5.0 mi SSE 17.3 mph 20.7 mph N/A   Overcast
8:53 AM 17.6 °F 3.2 °F 12.2 °F 79% 29.94 in 5.0 mi SSE 15.0 mph - N/A   Overcast
9:13 AM 17.6 °F 5.0 °F 12.2 °F 79% 29.94 in 5.0 mi SSE 11.5 mph 24.2 mph N/A   Overcast
9:33 AM 17.6 °F 1.7 °F 14.0 °F 86% 29.93 in 5.0 mi South 18.4 mph 21.9 mph N/A   Mostly Cloudy
9:53 AM 17.6 °F 0.1 °F 14.0 °F 86% 29.92 in 2.0 mi SSE 23.0 mph 29.9 mph N/A   Overcast
10:13 AM 19.4 °F 6.0 °F 15.8 °F 86% 29.91 in 5.0 mi SSE 13.8 mph 21.9 mph N/A   Mostly Cloudy
10:33 AM 19.4 °F 6.0 °F 15.8 °F 86% 29.90 in 7.0 mi SSE 13.8 mph 19.6 mph N/A   Scattered Clouds
10:53 AM 21.2 °F 5.2 °F 15.8 °F 80% 29.90 in 7.0 mi SSE 21.9 mph 27.6 mph N/A   Scattered Clouds
11:13 AM 21.2 °F 5.6 °F 15.8 °F 80% 29.89 in 5.0 mi SSE 20.7 mph 27.6 mph N/A   Haze
11:33 AM 24.8 °F 11.9 °F 17.6 °F 74% 29.88 in 7.0 mi South 16.1 mph 24.2 mph N/A   Clear
11:53 AM 24.8 °F 10.7 °F 17.6 °F 74% 29.87 in 7.0 mi SSE 19.6 mph 27.6 mph N/A   Clear
12:13 PM 24.8 °F 10.7 °F 17.6 °F 74% 29.87 in 7.0 mi South 19.6 mph - N/A   Clear
12:33 PM 24.8 °F 12.4 °F 17.6 °F 74% 29.87 in 7.0 mi SSE 15.0 mph - N/A   Scattered Clouds
12:53 PM 26.6 °F 13.1 °F 19.4 °F 74% 29.87 in 7.0 mi South 19.6 mph 25.3 mph N/A   Mostly Cloudy
1:13 PM 24.8 °F 8.7 °F 19.4 °F 80% 29.84 in 7.0 mi South 26.5 mph 35.7 mph N/A   Overcast
1:33 PM 24.8 °F 10.0 °F 19.4 °F 80% 29.83 in 5.0 mi South 21.9 mph 26.5 mph N/A   Haze
1:53 PM 24.8 °F 10.7 °F 19.4 °F 80% 29.82 in 5.0 mi South 19.6 mph 28.8 mph N/A   Haze
2:13 PM 24.8 °F 10.3 °F 19.4 °F 80% 29.81 in 4.0 mi South 20.7 mph 27.6 mph N/A   Haze
2:33 PM 24.8 °F 9.6 °F 19.4 °F 80% 29.81 in 4.0 mi South 23.0 mph - N/A   Overcast
2:53 PM 24.8 °F 11.1 °F 19.4 °F 80% 29.81 in 4.0 mi South 18.4 mph 27.6 mph N/A   Overcast
3:13 PM 24.8 °F 11.5 °F 19.4 °F 80% 29.81 in 4.0 mi South 17.3 mph 24.2 mph N/A   Overcast
3:33 PM 24.8 °F 10.7 °F 21.2 °F 86% 29.82 in 4.0 mi South 19.6 mph 25.3 mph N/A   Overcast
3:53 PM 24.8 °F 11.1 °F 21.2 °F 86% 29.81 in 4.0 mi South 18.4 mph 24.2 mph N/A   Overcast
4:13 PM 24.8 °F 11.9 °F 21.2 °F 86% 29.81 in 3.0 mi South 16.1 mph 26.5 mph N/A   Overcast
4:33 PM 24.8 °F 10.3 °F 21.2 °F 86% 29.80 in 3.0 mi South 20.7 mph - N/A   Overcast
4:53 PM 24.8 °F 11.1 °F 21.2 °F 86% 29.78 in 3.0 mi South 18.4 mph - N/A   Overcast
5:13 PM 24.8 °F 13.4 °F 21.2 °F 86% 29.78 in 3.0 mi SSE 12.7 mph 26.5 mph N/A   Overcast
5:33 PM 24.8 °F 12.9 °F 21.2 °F 86% 29.80 in 3.0 mi South 13.8 mph 21.9 mph N/A   Overcast
5:54 PM 24.8 °F 12.9 °F 21.2 °F 86% 29.78 in 2.5 mi SSE 13.8 mph - N/A   Overcast
6:13 PM 24.8 °F 12.9 °F 21.2 °F 86% 29.78 in 3.0 mi SSE 13.8 mph 18.4 mph N/A   Overcast
6:33 PM 24.8 °F 14.6 °F 21.2 °F 86% 29.78 in 3.0 mi SSE 10.4 mph - N/A   Overcast
6:54 PM 24.8 °F 13.4 °F 21.2 °F 86% 29.78 in 3.0 mi South 12.7 mph - N/A   Overcast
7:13 PM 24.8 °F 15.3 °F 23.0 °F 93% 29.77 in 3.0 mi SSE 9.2 mph 17.3 mph N/A   Overcast
7:33 PM 24.8 °F 16.9 °F 23.0 °F 93% 29.77 in 3.0 mi SSE 6.9 mph - N/A   Overcast
7:54 PM 24.8 °F 15.3 °F 23.0 °F 93% 29.77 in 2.5 mi SSE 9.2 mph - N/A   Overcast
8:13 PM 24.8 °F 15.3 °F 23.0 °F 93% 29.76 in 2.5 mi SE 9.2 mph - N/A   Overcast
8:33 PM 24.8 °F 16.9 °F 23.0 °F 93% 29.77 in 2.5 mi SSE 6.9 mph - N/A   Overcast
8:53 PM 24.8 °F 15.3 °F 23.0 °F 93% 29.76 in 2.5 mi SSE 9.2 mph - N/A   Overcast
9:14 PM 24.8 °F 16.1 °F 24.8 °F 100% 29.72 in 2.0 mi SE 8.1 mph - N/A   Overcast
9:33 PM 24.8 °F 14.0 °F 24.8 °F 100% 29.73 in 2.0 mi South 11.5 mph 18.4 mph N/A   Overcast
9:53 PM 24.8 °F 14.0 °F 24.8 °F 100% 29.73 in 2.5 mi South 11.5 mph - N/A   Overcast
10:13 PM 24.8 °F 17.9 °F 24.8 °F 100% 29.73 in 2.0 mi SSE 5.8 mph - N/A   Overcast
10:33 PM 24.8 °F 14.6 °F 24.8 °F 100% 29.71 in 2.0 mi SSE 10.4 mph - N/A   Overcast
10:53 PM 24.8 °F 15.3 °F 24.8 °F 100% 29.71 in 2.0 mi SSE 9.2 mph - N/A   Overcast
11:13 PM 24.8 °F 14.0 °F 24.8 °F 100% 29.71 in 2.0 mi South 11.5 mph - N/A   Overcast
11:33 PM 24.8 °F 16.9 °F 24.8 °F 100% 29.72 in 2.0 mi South 6.9 mph - N/A   Overcast
11:54 PM 24.8 °F 16.9 °F 24.8 °F 100% 29.74 in 2.0 mi SSW 6.9 mph - N/A   Overcast